Wind_Speed
5 3 3 2 3 5 7 10 7 10 14 19 11 15 6 6 12 22 16 18 25 32 30 25 24 20 18 16 13 13 10 8 7 6 5 7 15 15 14 15 16 17 18 18
1 3 4 4 7 10 9 10 13 17 19 15 10 16 1 9 12 20 19 25 26 26 31 32 28 23 18 15 12 8 7 6 3 5 6 6 7 14 16 15 14 15 17 17
2 3 4 5 4 7 7 6 5 10 13 12 11 12 15 17 15 15 13 19 23 25 28 27 28 28 26 24 15 12 10 10 7 6 9 10 8 7 10 13 16 18 18 19
1 2 2 2 8 2 8 8 11 12 9 10 14 18 23 22 17 15 17 20 22 24 27 26 25 24 23 21 16 15 12 6 8 8 8 10 12 15 16 17 17 15 16 16
1 1 5 2 6 5 5 8 13 10 8 11 6 6 20 22 19 17 18 18 18 19 19 21 24 24 20 17 9 13 10 4 6 6 5 5 8 11 14 18 19 20 21 21
1 1 2 4 10 13 6 3 17 19 6 9 12 3 3 17 18 18 17 17 18 16 14 17 20 18 16 18 19 19 14 11 10 9 7 4 4 2 3 5 8 11 14 16
2 2 4 7 16 12 2 4 15 18 14 10 5 8 9 11 16 17 17 17 17 19 20 19 15 13 15 16 18 17 14 11 12 13 12 10 8 6 6 4 2 3 3 5
1 2 2 15 5 5 1 8 11 15 16 22 18 15 14 15 17 17 17 16 17 18 19 18 17 15 15 15 15 13 11 11 11 12 13 12 10 10 9 7 6 4 2 2
3 4 7 15 15 11 11 11 14 14 13 15 16 12 13 14 14 14 14 14 14 14 15 15 15 15 13 13 12 12 11 11 11 11 12 11 9 10 11 10 9 8 6 5
2 7 12 16 16 16 15 16 14 14 13 12 12 11 12 12 11 12 13 14 13 12 13 13 13 13 13 10 10 9 9 10 10 11 12 10 9 10 10 11 11 10 8 7
1 5 3 18 16 13 14 14 15 15 14 12 10 11 10 10 10 10 10 11 12 14 14 14 12 11 10 9 9 8 8 9 10 10 12 13 11 13 14 13 11 10 11 10
3 8 8 10 11 11 13 14 14 13 13 13 11 9 8 10 10 10 11 11 11 12 12 13 13 12 11 10 8 7 7 8 9 8 9 11 12 13 15 12 13 15 16 15
3 4 12 10 10 9 10 11 11 11 12 11 10 9 9 10 10 10 12 13 14 14 13 12 12 12 11 11 10 8 7 6 6 6 7 8 9 9 11 13 14 17 18 17
8 5 6 9 6 7 7 7 8 10 11 11 11 10 10 10 9 10 12 13 13 12 13 13 13 13 14 12 11 10 8 7 6 6 7 7 8 9 10 10 11 14 14 14
8 7 6 5 5 7 7 5 8 10 10 11 11 11 11 11 12 12 11 11 11 11 12 12 12 13 13 13 11 10 9 9 8 8 7 7 8 8 9 9 10 11 11 11
3 5 4 5 6 7 7 8 8 8 8 9 10 10 10 11 11 11 11 11 9 12 13 12 12 12 12 11 11 10 10 10 8 8 8 8 8 8 8 8 8 8 8 9
6 3 4 5 6 8 9 8 7 6 6 7 8 7 7 8 8 9 10 11 11 10 11 10 11 11 10 10 10 9 8 7 7 6 6 6 6 6 6 6 6 6 7 7
5 6 5 5 5 5 7 8 8 8 9 10 9 8 7 6 8 8 8 8 8 7 7 8 9 9 9 8 8 8 6 5 4 4 4 4 4 5 5 5 5 4 4 4
6 7 7 7 7 7 8 10 10 11 11 11 9 8 8 8 8 8 8 7 6 6 8 8 8 7 6 5 5 5 4 4 3 3 3 2 2 2 3 3 3 3 4 4
6 6 6 7 9 10 11 11 10 10 11 11 10 9 8 8 8 8 8 8 9 10 10 10 8 7 6 5 4 2 2 1 1 0 1 1 1 1 2 3 4 4 4 4
9 10 11 10 11 12 12 13 11 11 12 11 9 10 10 10 9 8 6 7 8 8 9 9 8 7 6 5 5 4 3 2 1 1 1 2 2 3 3 3 3 3 3 3
11 11 11 11 9 9 10 9 8 9 9 9 9 9 9 8 8 8 8 8 9 8 8 8 7 7 7 6 5 5 4 3 2 2 2 2 2 2 2 2 1 1 1 1
10 9 9 9 8 7 6 6 7 7 8 9 9 10 9 8 8 7 6 7 7 7 8 7 7 6 5 5 5 4 4 3 2 1 1 1 0 0 0 0 1 1 1 2
9 9 8 7 5 5 5 5 5 7 8 10 11 11 10 8 8 6 6 7 8 7 7 7 6 6 5 5 5 4 3 3 2 2 2 2 2 1 2 2 2 3 3 4
8 6 5 4 3 3 3 4 5 6 7 9 10 11 9 6 5 5 5 6 6 7 6 7 7 6 5 5 4 4 4 3 3 3 3 3 3 3 3 4 4 4 5 5
4 3 1 0 2 3 4 6 8 9 9 9 10 8 6 6 5 5 5 6 6 6 6 6 7 7 7 7 6 5 5 5 5 5 5 5 5 5 6 6 6 6 6 7
3 1 0 2 4 5 7 8 8 8 8 9 8 5 5 4 3 4 4 5 6 6 6 6 7 8 8 8 7 6 7 7 7 7 7 7 7 7 7 7 8 8 8 8
Wind_Direction
93 128 174 226 246 272 268 252 254 286 286 292 311 327 331 8 53 51 23 19 40 54 56 70 96 111 135 149 163 174 184 182 193 223 213 198 207 212 218 221 225 230 232 233
81 33 77 277 281 290 271 265 252 268 277 294 298 320 165 80 59 51 31 25 38 50 64 60 73 84 101 119 128 140 148 137 180 234 247 238 220 213 221 226 229 231 234 239
93 23 322 290 148 354 332 310 273 305 308 309 333 57 42 68 57 57 33 45 40 44 52 59 60 70 78 86 111 137 150 158 179 211 222 245 247 250 235 236 239 241 241 242
56 325 59 104 307 65 359 357 346 313 346 40 77 68 53 48 49 39 46 45 43 43 51 55 63 69 65 69 82 92 94 117 173 188 206 225 236 239 243 246 253 256 260 258
73 25 301 37 45 1 354 340 3 347 104 95 149 93 36 35 44 44 43 47 50 52 41 48 54 61 71 88 83 84 90 93 113 116 131 179 212 223 232 236 242 250 253 257
100 49 285 62 333 327 295 275 0 349 97 77 71 47 53 27 41 45 47 40 46 54 57 56 53 55 62 71 72 79 84 75 84 97 108 126 135 150 205 225 228 236 241 238
144 234 282 349 324 312 224 357 10 22 15 39 62 72 90 60 49 48 44 44 43 49 55 57 57 53 51 55 55 50 45 57 69 74 77 73 72 81 83 102 150 184 216 231
132 240 300 360 16 33 28 39 40 51 60 76 80 74 65 57 45 38 45 45 47 48 51 52 55 56 56 59 56 55 43 46 53 57 57 62 66 73 78 79 77 84 72 4
354 359 30 55 68 45 63 72 47 67 72 84 84 70 57 51 37 36 41 44 48 48 48 49 50 52 54 55 52 51 45 53 56 59 56 52 60 69 70 70 65 64 66 56
341 46 32 45 57 57 56 65 67 69 65 71 73 65 59 51 46 35 34 41 45 50 53 49 46 45 49 47 47 46 47 50 61 59 55 44 51 58 54 52 46 46 51 57
341 25 89 43 48 57 64 60 57 57 60 60 59 58 53 52 50 46 39 40 39 45 48 45 40 39 40 43 43 44 48 51 50 52 57 55 59 60 52 50 53 58 65 67
48 352 85 50 48 53 57 52 52 52 49 51 53 60 58 56 47 45 45 51 56 51 44 41 38 36 36 38 37 35 36 42 45 47 53 55 57 61 65 74 80 79 74 68
33 85 102 98 72 45 50 44 41 51 55 50 47 45 48 52 52 53 50 50 51 49 48 45 42 41 44 44 42 41 46 47 43 45 52 61 66 73 79 79 81 87 84 80
54 182 81 56 56 56 53 46 41 53 53 56 57 56 56 61 60 58 55 50 48 48 49 46 43 43 45 45 45 48 53 61 67 77 87 91 90 90 89 90 90 86 86 90
46 64 83 88 58 47 50 50 51 56 52 50 52 57 62 68 69 65 63 60 55 54 57 53 50 49 48 48 48 53 62 71 80 94 102 103 103 104 103 100 96 93 89 82
99 72 63 55 49 45 47 55 60 66 59 56 55 56 60 65 71 70 67 64 58 52 50 48 50 48 49 54 57 64 72 75 84 97 103 107 109 111 107 101 100 101 104 100
165 64 83 63 54 48 46 48 55 61 62 58 56 64 74 74 71 68 60 53 47 43 41 40 44 41 40 47 53 59 64 75 82 96 105 107 109 109 109 112 114 117 117 110
90 93 80 84 83 71 61 64 72 81 79 74 73 75 76 77 67 54 44 33 24 23 27 34 38 36 34 40 46 47 52 60 76 96 105 111 116 117 116 115 112 108 103 107
94 94 89 82 74 81 82 82 84 83 79 73 69 66 58 53 52 43 34 18 17 21 28 25 21 16 11 18 36 40 46 57 78 98 99 89 96 103 98 92 94 102 105 107
91 96 96 89 95 96 98 89 80 76 73 65 55 52 48 47 44 38 32 27 32 33 27 21 18 12 15 18 31 27 32 35 42 57 83 69 77 78 90 102 108 106 104 104
99 98 101 103 103 100 91 80 67 62 54 47 39 41 40 38 35 34 27 23 28 25 22 18 18 25 30 41 42 43 49 54 63 82 93 96 93 102 106 105 104 102 96 95
113 113 111 105 102 96 87 76 58 47 38 29 24 21 19 15 15 14 17 19 16 17 18 15 20 29 36 41 40 45 51 61 72 84 92 98 102 103 111 107 95 71 52 47
125 122 118 112 103 90 77 68 57 47 37 27 18 8 358 357 357 359 357 359 1 4 7 6 12 18 26 26 32 37 40 42 43 42 33 31 32 313 302 297 316 329 341 343
131 125 120 113 102 83 66 54 40 26 17 14 9 3 358 351 349 353 360 4 4 4 2 1 1 2 10 12 15 17 19 21 18 10 1 354 338 317 307 301 305 312 318 322
127 123 120 107 79 44 13 355 345 346 351 355 355 354 356 359 2 359 360 1 4 6 4 4 9 12 9 5 5 5 4 358 346 338 336 332 326 320 312 306 304 305 307 310
131 137 148 303 325 327 318 313 311 305 315 319 333 338 344 347 348 350 353 355 353 351 352 355 354 359 359 353 352 351 351 346 340 331 323 319 317 316 313 310 308 307 307 305
144 128 314 316 318 314 313 311 303 294 288 292 315 326 334 345 352 352 357 357 354 352 348 343 341 341 344 340 335 335 335 334 330 329 330 324 321 320 319 316 312 309 307 305
Height
1424 1426 1428 1429 1430 1430 1432 1430 1433 1417 1418 1409 1413 1411 1408 1407 1403 1400 1403 1399 1390 1385 1384 1384 1380 1382 1384 1388 1395 1401 1406 1410 1413 1418 1422 1425 1428 1431 1434 1436 1439 1442 1444 1447
1428 1426 1427 1427 1427 1428 1426 1424 1422 1419 1415 1409 1410 1409 1408 1407 1405 1403 1398 1396 1394 1394 1390 1388 1388 1387 1386 1388 1395 1402 1406 1409 1413 1417 1420 1423 1426 1428 1431 1433 1435 1437 1439 1441
1429 1430 1428 1428 1426 1425 1423 1419 1418 1416 1411 1409 1410 1412 1412 1411 1411 1411 1413 1405 1404 1401 1396 1396 1394 1393 1392 1391 1396 1400 1405 1408 1411 1414 1417 1418 1422 1425 1428 1430 1432 1434 1436 1437
1431 1430 1437 1426 1424 1424 1422 1419 1419 1414 1414 1416 1420 1421 1419 1418 1417 1416 1412 1410 1407 1405 1401 1399 1399 1399 1397 1398 1404 1403 1405 1409 1412 1415 1416 1417 1420 1421 1423 1425 1428 1430 1432 1433
1434 1434 1429 1424 1429 1431 1428 1423 1424 1419 1418 1421 1421 1421 1424 1425 1422 1420 1418 1415 1412 1409 1408 1406 1401 1398 1401 1403 1405 1403 1407 1416 1414 1412 1413 1415 1417 1418 1420 1421 1423 1424 1425 1426
1439 1439 1439 1433 1432 1430 1428 1422 1430 1425 1417 1420 1416 1422 1431 1430 1427 1426 1422 1421 1418 1415 1412 1409 1408 1408 1411 1414 1409 1407 1416 1417 1415 1413 1413 1415 1416 1416 1417 1418 1418 1419 1420 1421
1441 1439 1432 1438 1432 1427 1425 1437 1437 1433 1428 1424 1424 1432 1434 1432 1430 1429 1427 1426 1424 1420 1416 1415 1415 1414 1414 1413 1412 1414 1419 1419 1416 1414 1413 1414 1415 1415 1416 1416 1416 1416 1416 1417
1440 1440 1440 1440 1432 1434 1445 1444 1442 1438 1437 1435 1437 1436 1436 1432 1432 1431 1430 1430 1428 1425 1423 1423 1421 1421 1421 1419 1420 1421 1422 1419 1416 1414 1414 1415 1416 1415 1415 1415 1415 1415 1414 1415
1445 1445 1447 1444 1446 1448 1446 1446 1446 1443 1442 1441 1439 1440 1439 1436 1437 1437 1435 1433 1432 1430 1428 1427 1426 1425 1425 1424 1424 1422 1422 1420 1419 1418 1417 1418 1418 1417 1416 1415 1416 1415 1413 1414
1448 1454 1454 1451 1451 1450 1450 1449 1449 1448 1446 1444 1444 1443 1441 1440 1438 1439 1437 1434 1435 1434 1432 1431 1430 1429 1427 1426 1425 1424 1424 1423 1421 1421 1420 1422 1419 1417 1416 1416 1415 1414 1416 1417
1451 1455 1456 1456 1456 1455 1454 1454 1452 1451 1449 1448 1448 1446 1444 1443 1442 1442 1441 1438 1436 1434 1433 1432 1431 1431 1430 1428 1427 1426 1424 1422 1421 1422 1421 1421 1421 1419 1418 1417 1418 1419 1420 1419
1457 1461 1459 1462 1460 1458 1457 1456 1454 1453 1452 1451 1450 1449 1447 1445 1444 1443 1442 1440 1438 1436 1436 1434 1432 1431 1429 1428 1427 1425 1423 1422 1422 1424 1423 1422 1422 1422 1422 1423 1423 1423 1421 1420
1463 1462 1462 1463 1462 1461 1460 1458 1456 1454 1453 1452 1452 1451 1448 1445 1444 1443 1442 1441 1439 1438 1437 1436 1435 1433 1431 1429 1428 1427 1426 1426 1425 1425 1425 1424 1425 1427 1428 1428 1426 1423 1425 1427
1462 1463 1462 1463 1464 1463 1462 1460 1458 1455 1454 1453 1453 1451 1449 1447 1446 1445 1444 1443 1442 1440 1438 1437 1436 1434 1433 1431 1430 1429 1428 1428 1428 1428 1428 1430 1431 1431 1430 1430 1430 1429 1431 1431
1463 1462 1463 1463 1463 1462 1461 1461 1460 1457 1456 1454 1452 1451 1451 1450 1448 1448 1447 1446 1445 1444 1442 1440 1438 1438 1437 1435 1434 1432 1431 1431 1431 1432 1434 1435 1434 1434 1434 1434 1433 1433 1433 1434
1465 1463 1463 1463 1463 1462 1462 1461 1460 1459 1458 1456 1454 1453 1453 1452 1451 1451 1450 1448 1447 1445 1445 1444 1443 1443 1441 1439 1437 1437 1436 1436 1435 1436 1436 1436 1436 1436 1436 1435 1434 1435 1436 1436
1463 1464 1464 1464 1464 1462 1460 1460 1459 1459 1458 1456 1456 1456 1456 1455 1455 1454 1452 1451 1450 1449 1447 1446 1445 1444 1442 1440 1440 1439 1439 1438 1437 1437 1438 1438 1438 1438 1437 1438 1438 1439 1440 1439
1462 1463 1463 1464 1463 1463 1461 1461 1460 1460 1459 1458 1458 1458 1459 1457 1455 1454 1454 1453 1452 1450 1449 1447 1446 1444 1443 1442 1441 1440 1439 1439 1439 1439 1440 1441 1441 1441 1441 1441 1441 1441 1441 1441
1463 1463 1463 1463 1462 1462 1463 1463 1463 1463 1461 1460 1460 1461 1460 1459 1457 1456 1455 1455 1453 1451 1449 1448 1446 1445 1445 1444 1443 1442 1442 1442 1442 1442 1442 1443 1443 1443 1442 1442 1442 1442 1442 1442
1462 1462 1463 1463 1464 1465 1466 1466 1465 1464 1463 1463 1463 1463 1462 1460 1458 1457 1457 1456 1454 1452 1451 1449 1448 1447 1446 1445 1444 1444 1444 1443 1443 1443 1443 1443 1444 1443 1443 1442 1442 1442 1442 1442
1463 1464 1465 1466 1467 1468 1468 1467 1467 1466 1465 1465 1465 1464 1462 1460 1460 1459 1458 1457 1455 1454 1452 1451 1450 1448 1446 1446 1445 1445 1444 1444 1444 1444 1444 1444 1444 1443 1443 1443 1443 1442 1442 1442
1466 1467 1468 1469 1470 1470 1470 1470 1470 1469 1468 1468 1466 1465 1464 1462 1461 1460 1459 1457 1456 1454 1453 1452 1450 1448 1447 1447 1446 1446 1445 1445 1445 1445 1445 1445 1444 1444 1444 1443 1444 1442 1442 1442
1467 1469 1470 1470 1471 1472 1472 1472 1471 1470 1470 1468 1467 1465 1464 1462 1461 1460 1459 1458 1456 1455 1454 1452 1450 1449 1448 1447 1447 1446 1446 1446 1445 1445 1445 1445 1444 1444 1444 1443 1443 1442 1442 1441
1469 1471 1472 1472 1473 1473 1473 1472 1472 1471 1470 1469 1467 1465 1464 1462 1461 1460 1459 1457 1456 1455 1454 1452 1451 1450 1449 1448 1448 1447 1447 1446 1446 1445 1445 1444 1444 1443 1443 1442 1442 1441 1440 1439
1471 1472 1473 1473 1473 1473 1473 1472 1471 1471 1470 1468 1467 1465 1464 1462 1462 1460 1459 1458 1457 1456 1454 1453 1452 1451 1450 1449 1448 1447 1446 1446 1445 1444 1444 1443 1443 1442 1441 1440 1440 1439 1438 1437
1472 1472 1472 1472 1472 1472 1471 1471 1470 1470 1469 1467 1466 1465 1463 1462 1461 1460 1459 1458 1457 1456 1455 1453 1452 1451 1450 1448 1447 1446 1446 1445 1444 1443 1442 1442 1441 1440 1439 1438 1437 1437 1436 1435
1471 1471 1471 1471 1471 1470 1469 1468 1468 1467 1466 1465 1464 1463 1462 1461 1461 1460 1459 1458 1456 1455 1454 1453 1451 1450 1449 1447 1446 1445 1444 1443 1442 1441 1440 1439 1438 1437 1436 1435 1434 1434 1433 1432